Weather History for Siemreap, Cambodia

Change the Weather History Date:

Wednesday, August 20, 2014

  Actual Average Record
Temperature  
Mean Temperature 83 °F -  
Max Temperature 89 °F - - ()
Min Temperature 77 °F - - ()
Cooling Degree Days 18    
Growing Degree Days 33 (Base 50)    
Moisture  
Dew Point 75 °F    
Average Humidity 73    
Maximum Humidity 84    
Minimum Humidity 59    
Precipitation  
Precipitation 0.00 in - - ()
Sea Level Pressure  
Sea Level Pressure 29.77 in    
Wind  
Wind Speed 4 mph ()    
Max Wind Speed 9 mph    
Max Gust Speed -    
Visibility 6.0 miles    
Events      
T = Trace of Precipitation, MM = Missing Value Source: Averaged Metar Reports

Daily Weather History Graph

Daily Weather History Graph

Search for Another Location

Airport:

Trip Planner

Search our weather history database for the weather conditions in past years. The results will help you decide how hot, cold, wet, or windy it might be!

Date:

Astronomy

Aug. 20, 2014 Rise Set
Actual Time 5:52 AM ICT 6:23 PM ICT
Civil Twilight 5:30 AM ICT 6:45 PM ICT
Nautical Twilight 5:05 AM ICT 7:10 PM ICT
Astronomical Twilight 4:39 AM ICT 7:36 PM ICT
Moon 1:23 AM ICT (8/20) 2:25 PM ICT (8/20)
Length of Visible Light 13h 14m
Length of Day
12h 30m
Waning Crescent, 24% of the Moon is Illuminated
Aug 20
Waning Crescent
Aug 25
New
Sep 2
First Quarter
Sep 9
Full
Sep 16
Last Quarter

Hourly Weather History & Observations

Time (ICT) Temp. Heat Index Dew Point Humidity Pressure Visibility Wind Dir Wind Speed Gust Speed Precip Events Conditions
12:00 AM 80.6 °F 86.2 °F 75.2 °F 84% 29.80 in 6.2 mi West 4.6 mph - N/A   Scattered Clouds
1:00 AM 80.6 °F 86.2 °F 75.2 °F 84% 29.77 in 6.2 mi WSW 3.5 mph - N/A   Scattered Clouds
7:00 AM - - - %  in - Calm Calm - -  
7:00 AM 82.4 °F 90.9 °F 77.0 °F 84% 29.80 in 6.2 mi ESE 3.5 mph - N/A   Partly Cloudy
7:30 AM 82.4 °F 90.9 °F 77.0 °F 84% 29.80 in 6.2 mi Variable 1.2 mph - N/A   Partly Cloudy
8:00 AM 84.2 °F 94.1 °F 77.0 °F 79% 29.80 in 6.2 mi Variable 1.2 mph - N/A   Partly Cloudy
8:30 AM 84.2 °F 92.3 °F 75.2 °F 74% 29.83 in 6.2 mi South 4.6 mph - N/A   Scattered Clouds
9:00 AM 86.0 °F 93.4 °F 73.4 °F 66% 29.83 in 6.2 mi SSW 4.6 mph - N/A   Scattered Clouds
9:30 AM 86.0 °F 93.4 °F 73.4 °F 66% 29.83 in 6.2 mi WNW 5.8 mph - N/A   Scattered Clouds
10:00 AM 86.0 °F 95.1 °F 75.2 °F 70% 29.80 in 6.2 mi West 5.8 mph - N/A   Scattered Clouds
10:30 AM 87.8 °F 95.6 °F 73.4 °F 62% 29.80 in 6.2 mi WSW 5.8 mph - N/A   Scattered Clouds
11:00 AM 87.8 °F 97.6 °F 75.2 °F 66% 29.80 in 6.2 mi Variable 3.5 mph - N/A   Scattered Clouds
11:30 AM 89.6 °F 99.8 °F 75.2 °F 62% 29.80 in 6.2 mi Variable 3.5 mph - N/A   Scattered Clouds
12:00 PM 87.8 °F 95.6 °F 73.4 °F 62% 29.77 in 6.2 mi SW 5.8 mph - N/A   Scattered Clouds
12:30 PM 89.6 °F 99.8 °F 75.2 °F 62% 29.77 in 6.2 mi SW 4.6 mph - N/A   Scattered Clouds
1:00 PM 89.6 °F 99.8 °F 75.2 °F 62% 29.74 in 6.2 mi SW 5.8 mph - N/A   Scattered Clouds
1:30 PM 89.6 °F 98.2 °F 73.4 °F 59% 29.74 in 6.2 mi SSW 4.6 mph - N/A   Scattered Clouds
2:00 PM 89.6 °F 99.8 °F 75.2 °F 62% 29.71 in 6.2 mi Variable 3.5 mph - N/A   Scattered Clouds
2:30 PM 89.6 °F 98.2 °F 73.4 °F 59% 29.71 in 6.2 mi Variable 1.2 mph - N/A   Partly Cloudy
3:00 PM 89.6 °F 98.2 °F 73.4 °F 59% 29.68 in 6.2 mi Variable 3.5 mph - N/A   Partly Cloudy
3:30 PM 89.6 °F 98.2 °F 73.4 °F 59% 29.68 in 6.2 mi South 4.6 mph - N/A   Scattered Clouds
4:00 PM 87.8 °F 95.6 °F 73.4 °F 62% 29.71 in 6.2 mi Variable 3.5 mph - N/A   Scattered Clouds
4:30 PM 87.8 °F 95.6 °F 73.4 °F 62% 29.71 in 6.2 mi South 4.6 mph - N/A   Scattered Clouds
5:00 PM 86.0 °F 95.1 °F 75.2 °F 70% 29.71 in 6.2 mi SSW 4.6 mph - N/A   Scattered Clouds
5:30 PM 84.2 °F 92.3 °F 75.2 °F 74% 29.71 in 6.2 mi SW 5.8 mph - N/A   Scattered Clouds
6:00 PM 82.4 °F 88.2 °F 73.4 °F 74% 29.74 in 6.2 mi WSW 5.8 mph - N/A   Scattered Clouds
6:30 PM 78.8 °F - 73.4 °F 83% 29.74 in 5.6 mi WSW 9.2 mph - N/A   Mostly Cloudy
7:00 PM 80.6 °F 85.4 °F 73.4 °F 79% 29.77 in 5.6 mi SW 4.6 mph - N/A   Mostly Cloudy
7:30 PM 80.6 °F 86.2 °F 75.2 °F 84% 29.77 in 5.6 mi SW 4.6 mph - N/A   Mostly Cloudy
8:00 PM 80.6 °F 85.4 °F 73.4 °F 79% 29.77 in 5.6 mi WNW 4.6 mph - N/A   Mostly Cloudy
8:30 PM 80.6 °F 86.2 °F 75.2 °F 84% 29.80 in 5.6 mi SE 4.6 mph - N/A   Scattered Clouds
9:00 PM 80.6 °F 86.2 °F 75.2 °F 84% 29.80 in 5.6 mi Calm Calm - N/A   Scattered Clouds
9:30 PM 82.4 °F 89.5 °F 75.2 °F 79% 29.80 in 5.6 mi SE 4.6 mph - N/A   Scattered Clouds
10:00 PM 80.6 °F 86.2 °F 75.2 °F 84% 29.80 in 5.6 mi East 4.6 mph - N/A   Scattered Clouds
10:30 PM 80.6 °F 86.2 °F 75.2 °F 84% 29.80 in 5.6 mi East 4.6 mph - N/A   Scattered Clouds
11:00 PM 80.6 °F 86.2 °F 75.2 °F 84% 29.80 in 5.6 mi East 4.6 mph - N/A   Scattered Clouds
11:30 PM 80.6 °F 86.2 °F 75.2 °F 84% 29.80 in 5.6 mi South 4.6 mph - N/A   Scattered Clouds